Snowfall_Accumulation
0.0 0.0 0.0 0.0 0.0 0.0 0.0 0.0 0.1 0.1 0.0 0.0 0.0 0.0 0.0 0.0 0.0 0.0 0.0 nan nan nan nan nan nan nan nan nan nan nan nan nan nan nan nan nan nan nan
0.0 0.0 0.0 0.0 0.0 0.0 0.0 0.0 0.0 0.2 0.3 0.0 0.0 0.0 0.0 0.0 0.0 0.0 0.0 nan nan nan nan nan nan nan nan nan nan nan nan nan nan nan nan nan nan nan
0.0 0.0 0.0 0.0 0.0 0.0 0.0 0.0 0.0 0.0 0.2 0.0 0.0 0.0 0.0 0.0 0.0 0.0 0.0 0.0 0.0 nan nan nan nan nan nan nan nan nan nan nan nan nan nan nan nan nan
0.0 0.0 0.0 0.0 0.0 0.0 0.0 0.0 0.0 0.0 0.1 0.2 0.0 0.0 0.0 0.0 0.0 0.0 0.0 0.0 0.0 nan nan nan nan nan nan nan nan nan nan nan nan nan nan nan nan nan
0.0 0.1 0.1 0.1 0.1 0.1 0.0 0.0 0.0 0.0 0.0 0.2 0.1 0.0 0.0 0.0 0.0 0.0 0.0 0.0 0.0 nan nan nan nan nan nan nan nan nan nan nan nan nan nan nan nan nan
0.0 0.1 0.2 0.6 0.8 0.3 0.1 0.1 0.0 0.1 0.0 0.1 0.1 0.1 0.0 0.0 0.0 0.0 0.0 0.0 0.0 0.0 nan nan nan nan nan nan nan nan nan nan nan nan nan nan nan nan
0.0 0.1 0.4 nan nan nan 0.8 0.5 0.2 0.3 0.2 0.2 0.2 0.1 0.1 0.1 0.1 0.1 0.1 0.0 0.0 0.0 0.0 0.0 0.0 0.0 0.0 nan nan nan nan nan nan nan nan nan nan nan
0.7 0.3 0.4 0.7 0.7 nan nan nan nan 1.8 0.8 0.8 0.7 0.7 0.4 0.4 0.1 0.3 0.1 0.0 0.0 0.0 0.0 0.3 0.0 0.0 0.0 0.0 nan nan nan nan nan nan nan nan nan nan
2.2 1.9 1.7 2.0 nan 1.3 nan nan nan nan nan 1.5 1.3 2.0 1.0 1.4 0.6 0.2 0.3 0.2 0.2 0.2 0.0 1.6 0.6 1.4 0.4 0.0 nan nan nan nan nan nan nan nan nan nan
6.5 6.0 5.0 3.5 4.1 2.8 3.0 3.5 4.7 4.2 5.2 3.2 3.0 4.4 3.1 1.5 1.2 1.1 0.9 0.8 0.9 1.9 0.5 3.9 2.9 4.6 1.7 0.6 nan nan nan nan nan nan nan nan nan nan
8.0 7.5 7.3 7.0 nan nan 5.5 6.7 8.7 11.3 nan nan nan nan nan nan nan 0.3 0.9 0.6 3.6 6.7 5.8 6.0 7.2 7.3 5.9 5.2 2.3 nan nan nan nan nan nan nan nan nan
8.2 6.9 nan 8.4 nan nan 6.4 8.1 11.9 18.4 13.6 10.4 9.1 8.4 nan nan nan 4.8 2.4 2.8 5.2 7.3 6.4 7.9 6.3 6.1 8.0 5.4 5.1 3.9 2.8 nan nan nan nan nan nan 0.9
11.9 11.4 10.7 nan nan nan nan 8.2 15.8 13.7 10.1 13.2 12.3 12.1 10.6 10.1 10.8 10.1 9.1 8.1 6.7 9.6 9.7 6.3 7.2 5.9 6.2 7.3 6.2 5.8 4.3 4.3 2.7 2.2 nan nan nan 1.0
12.3 12.7 16.5 nan nan nan 7.7 nan nan 4.7 12.4 12.3 11.0 11.3 10.5 10.7 12.0 10.3 10.4 9.0 9.2 10.8 7.7 3.7 7.9 5.9 6.7 7.8 8.4 6.7 5.9 5.3 3.9 3.6 3.1 nan nan nan
13.7 17.6 nan nan nan 1.8 nan nan 4.0 11.8 14.0 16.4 17.0 16.4 13.3 9.7 6.4 6.0 4.5 4.5 4.9 5.3 5.3 5.4 6.9 6.7 6.5 7.6 7.5 6.2 5.9 5.7 4.6 4.0 3.5 3.8 3.7 3.7
2.8 7.6 4.0 6.6 3.5 4.8 4.9 6.1 6.4 7.6 8.9 9.9 9.3 7.3 5.9 6.3 7.3 5.9 6.6 6.8 7.0 6.9 4.6 5.4 5.8 5.3 8.2 6.0 5.0 6.1 4.4 4.6 4.0 4.6 4.7 4.1 3.2 2.8
4.8 6.8 6.7 6.3 6.2 5.2 4.7 4.5 3.7 3.4 4.9 5.3 5.1 4.0 3.0 2.0 2.3 1.6 2.1 2.8 5.9 6.0 7.0 3.9 3.3 4.7 6.3 6.3 9.0 6.5 6.7 6.0 4.8 4.5 3.7 4.5 4.6 3.7
3.8 5.8 9.5 9.0 5.6 3.4 3.9 3.4 2.7 2.1 1.8 1.8 2.6 1.7 1.9 2.1 1.6 1.3 1.3 1.8 2.5 2.1 1.9 2.1 2.6 3.1 3.3 3.9 4.8 6.5 5.4 5.1 5.2 4.7 4.6 6.6 6.0 4.7
5.0 4.2 8.9 9.3 4.2 1.6 1.5 1.5 2.9 1.8 0.1 1.5 2.5 3.7 3.4 2.0 2.1 1.4 1.5 1.2 1.3 0.6 0.4 0.5 0.9 2.2 6.7 10.4 2.8 nan 4.7 4.1 4.3 4.3 3.0 4.5 6.5 5.4
1.9 3.4 5.5 4.9 1.9 1.5 1.5 1.8 2.0 3.2 3.6 2.6 4.1 6.0 7.0 4.3 3.8 2.5 2.0 3.1 1.4 0.5 0.4 0.2 0.3 0.5 2.9 8.2 10.8 4.7 nan 3.8 3.6 4.1 3.7 3.3 4.1 nan
1.8 1.8 3.7 3.0 2.3 1.5 6.5 7.8 10.3 9.0 8.2 11.8 5.9 6.3 14.7 3.3 4.0 3.1 3.7 2.9 2.2 0.8 1.0 0.6 0.3 0.2 0.4 1.1 12.8 4.5 2.0 nan 0.9 1.9 2.1 3.5 3.6 2.9
4.2 2.8 2.6 2.6 4.4 4.1 9.6 15.3 14.1 13.4 9.3 6.2 12.7 18.2 15.9 6.5 6.4 5.3 6.1 6.0 2.0 1.9 1.0 0.5 0.2 0.3 0.5 1.2 1.9 6.0 1.9 1.1 nan nan nan nan 5.0 8.1
7.8 3.6 5.6 7.3 9.0 9.0 3.8 9.1 3.9 8.0 7.3 7.2 6.5 6.7 29.8 8.5 4.4 4.5 5.5 4.1 2.4 2.2 1.4 1.5 0.6 0.4 0.6 0.6 1.4 3.4 1.4 3.6 1.0 1.3 1.6 nan nan nan
Water_Equivalent
0.00 0.00 0.00 0.00 0.00 0.00 0.00 0.00 0.01 0.01 0.00 0.00 0.00 0.00 0.00 0.00 0.00 0.00 0.00 nan nan nan nan nan nan nan nan nan nan nan nan nan nan nan nan nan nan nan
0.00 0.00 0.00 0.00 0.00 0.00 0.00 0.00 0.00 0.02 0.03 0.00 0.00 0.00 0.00 0.00 0.00 0.00 0.00 nan nan nan nan nan nan nan nan nan nan nan nan nan nan nan nan nan nan nan
0.00 0.00 0.00 0.00 0.00 0.00 0.00 0.00 0.00 0.00 0.02 0.00 0.00 0.00 0.00 0.00 0.00 0.00 0.00 0.00 0.00 nan nan nan nan nan nan nan nan nan nan nan nan nan nan nan nan nan
0.00 0.00 0.00 0.00 0.00 0.00 0.00 0.00 0.00 0.00 0.01 0.03 0.00 0.00 0.00 0.00 0.00 0.00 0.00 0.00 0.00 nan nan nan nan nan nan nan nan nan nan nan nan nan nan nan nan nan
0.00 0.01 0.01 0.01 0.01 0.01 0.00 0.00 0.00 0.00 0.00 0.03 0.01 0.00 0.00 0.00 0.00 0.00 0.00 0.00 0.00 nan nan nan nan nan nan nan nan nan nan nan nan nan nan nan nan nan
0.01 0.01 0.03 0.07 0.11 0.04 0.01 0.01 0.00 0.01 0.00 0.01 0.01 0.01 0.01 0.00 0.00 0.00 0.00 0.00 0.00 0.00 nan nan nan nan nan nan nan nan nan nan nan nan nan nan nan nan
0.01 0.02 0.06 nan nan nan 0.12 0.06 0.03 0.04 0.03 0.03 0.03 0.03 0.02 0.02 0.02 0.01 0.01 0.00 0.00 0.00 0.00 0.00 0.00 0.00 0.00 nan nan nan nan nan nan nan nan nan nan nan
0.12 0.06 0.08 0.12 0.11 nan nan nan nan 0.23 0.10 0.12 0.11 0.10 0.06 0.06 0.03 0.04 0.01 0.00 0.01 0.00 0.00 0.08 0.00 0.00 0.00 0.00 nan nan nan nan nan nan nan nan nan nan
0.36 0.29 0.24 0.31 nan 0.18 nan nan nan nan nan 0.20 0.17 0.27 0.13 0.20 0.09 0.03 0.04 0.04 0.04 0.06 0.00 0.44 0.18 0.42 0.14 0.00 nan nan nan nan nan nan nan nan nan nan
1.08 0.96 0.79 0.54 0.63 0.42 0.43 0.55 0.77 0.72 0.90 0.52 0.51 0.82 0.59 0.25 0.16 0.14 0.12 0.14 0.27 0.59 0.15 0.92 0.81 1.09 0.53 0.22 nan nan nan nan nan nan nan nan nan nan
1.21 1.26 1.26 1.11 nan nan 0.86 1.03 1.36 1.84 nan nan nan nan nan nan nan 0.10 0.30 0.22 1.08 1.67 1.48 1.42 1.70 1.69 1.57 1.42 0.84 nan nan nan nan nan nan nan nan nan
1.34 1.28 nan 1.37 nan nan 1.00 1.31 1.91 2.82 2.33 1.97 1.66 1.57 nan nan nan 0.93 0.56 0.72 1.24 1.62 1.56 1.63 1.50 1.50 1.66 1.41 1.33 1.03 0.85 nan nan nan nan nan nan 0.24
2.21 2.23 2.26 nan nan nan nan 1.48 2.53 2.47 1.83 2.38 2.21 2.30 1.97 1.86 1.93 1.87 1.67 1.50 1.36 1.67 1.77 1.41 1.48 1.29 1.34 1.41 1.19 1.14 0.97 0.95 0.63 0.53 nan nan nan 0.27
2.03 2.31 3.20 nan nan nan 1.65 nan nan 1.30 2.95 2.78 2.44 2.28 2.00 1.99 2.14 2.07 2.07 1.87 1.87 1.88 1.57 0.86 1.49 1.03 1.17 1.36 1.23 1.08 1.01 0.99 0.87 0.79 0.69 nan nan nan
2.42 3.16 nan nan nan 0.60 nan nan 1.31 2.05 2.47 2.72 2.61 2.55 2.26 1.85 1.33 1.32 1.12 1.12 1.18 1.22 1.19 1.27 1.46 1.33 1.24 1.26 1.15 0.99 1.00 0.90 0.76 0.67 0.63 0.74 0.69 0.72
0.76 1.43 1.31 1.34 1.17 1.26 1.04 1.04 1.08 1.23 1.34 1.44 1.28 1.01 0.86 0.93 1.05 0.94 1.06 1.14 1.20 1.17 0.96 1.19 1.34 1.22 1.51 1.08 0.84 0.91 0.73 0.73 0.62 0.70 0.76 0.69 0.58 0.58
1.21 1.40 1.24 1.11 1.00 0.81 0.75 0.73 0.62 0.58 0.77 0.85 0.82 0.62 0.47 0.34 0.37 0.29 0.37 0.48 0.91 0.83 1.05 0.65 0.56 0.82 1.03 1.04 1.43 1.02 1.00 0.87 0.76 0.73 0.64 0.83 0.91 0.73
0.76 0.98 1.45 1.45 0.90 0.53 0.59 0.52 0.43 0.41 0.31 0.34 0.49 0.32 0.34 0.38 0.30 0.29 0.28 0.36 0.43 0.34 0.30 0.34 0.46 0.55 0.58 0.63 0.69 0.87 0.81 0.76 0.82 0.77 0.76 1.08 0.94 0.81
0.89 0.70 1.35 1.45 0.68 0.26 0.26 0.24 0.44 0.32 0.02 0.30 0.47 0.64 0.60 0.38 0.42 0.31 0.33 0.27 0.28 0.14 0.09 0.11 0.18 0.41 1.00 1.37 0.41 nan 0.69 0.67 0.71 0.71 0.51 0.70 0.98 0.82
0.34 0.57 0.82 0.76 0.31 0.25 0.25 0.30 0.35 0.56 0.60 0.46 0.70 1.00 1.16 0.71 0.68 0.44 0.38 0.54 0.28 0.13 0.11 0.05 0.08 0.12 0.45 1.19 1.86 0.84 nan 0.72 0.65 0.67 0.55 0.50 0.70 nan
0.29 0.27 0.54 0.44 0.34 0.24 0.96 1.14 1.49 1.33 1.29 1.81 0.95 1.02 2.45 0.56 0.70 0.53 0.57 0.61 0.53 0.17 0.18 0.13 0.08 0.08 0.10 0.30 2.64 0.98 0.49 nan 0.16 0.31 0.35 0.57 0.57 0.44
0.57 0.37 0.36 0.35 0.59 0.56 1.38 2.28 2.09 2.04 1.37 0.95 1.93 2.95 2.67 1.06 0.95 0.80 0.97 0.97 0.32 0.33 0.17 0.11 0.06 0.07 0.12 0.24 0.37 1.34 0.42 0.30 nan nan nan nan 0.70 1.03
1.07 0.50 0.77 1.00 1.29 1.32 0.57 1.26 0.56 1.17 1.03 1.03 0.93 0.98 5.12 1.15 0.68 0.72 0.87 0.66 0.38 0.36 0.23 0.24 0.11 0.09 0.13 0.13 0.29 0.69 0.25 0.73 0.22 0.28 0.37 nan nan nan
SL_Ratio
nan nan nan nan nan nan nan nan 6.8 7.7 6.7 nan nan nan nan nan nan nan nan nan nan nan nan nan nan nan nan nan nan nan nan nan nan nan nan nan nan nan
nan nan nan nan nan nan nan nan 6.0 6.6 7.6 nan nan nan nan nan nan nan nan nan nan nan nan nan nan nan nan nan nan nan nan nan nan nan nan nan nan nan
nan nan 0.0 nan 10.0 nan 0.0 5.0 6.2 5.0 7.3 6.7 nan nan nan nan nan nan nan nan nan nan nan nan nan nan nan nan nan nan nan nan nan nan nan nan nan nan
8.0 7.5 7.5 nan 5.0 nan 10.0 6.3 7.5 10.0 6.9 7.2 nan nan nan nan nan nan nan nan nan nan nan nan nan nan nan nan nan nan nan nan nan nan nan nan nan nan
7.7 7.3 7.9 7.3 7.1 6.1 7.5 7.1 10.0 10.0 6.7 6.8 6.6 nan nan 5.0 nan nan nan nan nan nan nan nan nan nan nan nan nan nan nan nan nan nan nan nan nan nan
7.0 7.2 7.4 7.5 7.2 7.1 6.8 6.8 6.2 7.2 6.3 7.0 6.7 7.0 5.6 10.0 10.0 7.0 nan nan nan nan nan nan nan nan nan nan nan nan nan nan nan nan nan nan nan nan
4.8 5.4 6.5 nan nan nan 7.0 7.3 7.1 7.0 6.4 6.9 6.8 5.2 3.4 3.8 5.8 7.3 6.9 nan nan nan nan nan nan nan nan nan nan nan nan nan nan nan nan nan nan nan
6.2 5.6 5.9 6.2 6.2 nan nan nan nan 7.7 7.3 6.8 6.7 7.6 6.9 6.5 5.5 7.2 7.1 8.0 3.6 nan 0.0 3.1 nan 3.3 nan nan nan nan nan nan nan nan nan nan nan nan
6.2 6.6 6.9 6.7 nan 7.3 nan nan nan nan nan 7.2 7.9 7.6 7.4 7.1 7.0 6.8 7.0 5.2 4.6 3.2 10.0 3.6 3.1 3.4 2.8 2.7 nan nan nan nan nan nan nan nan nan nan
6.0 6.2 6.4 6.5 6.4 6.8 7.0 6.3 6.1 5.8 5.7 6.1 5.9 5.3 5.3 6.0 7.6 7.7 7.7 5.8 3.3 3.3 3.2 4.2 3.6 4.2 3.1 2.9 nan nan nan nan nan nan nan nan nan nan
6.6 5.9 5.8 6.3 nan nan 6.4 6.5 6.4 6.1 nan nan nan nan nan nan nan 3.2 3.1 2.9 3.3 4.0 3.9 4.3 4.3 4.3 3.8 3.7 2.8 nan nan nan nan nan nan nan nan nan
6.1 5.4 nan 6.1 nan nan 6.4 6.2 6.2 6.5 5.8 5.3 5.5 5.3 nan nan nan 5.1 4.3 3.8 4.2 4.5 4.1 4.9 4.2 4.0 4.8 3.8 3.9 3.7 3.3 nan nan nan nan nan nan 3.6
5.4 5.1 4.7 nan nan nan nan 5.5 6.2 5.6 5.5 5.5 5.6 5.3 5.4 5.4 5.6 5.4 5.5 5.4 4.9 5.7 5.5 4.5 4.9 4.6 4.6 5.2 5.2 5.1 4.5 4.5 4.2 4.1 nan nan nan 3.9
6.0 5.5 5.2 nan nan nan 4.7 nan nan 3.6 4.2 4.4 4.5 5.0 5.3 5.4 5.6 5.0 5.0 4.8 4.9 5.8 4.9 4.3 5.3 5.7 5.8 5.8 6.8 6.2 5.9 5.4 4.5 4.6 4.5 nan nan nan
5.7 5.6 nan nan nan 3.0 nan nan 3.0 5.8 5.7 6.0 6.5 6.4 5.9 5.3 4.8 4.5 4.0 4.0 4.1 4.3 4.5 4.3 4.7 5.1 5.3 6.1 6.5 6.2 5.9 6.3 6.0 6.0 5.6 5.2 5.3 5.1
3.6 5.3 3.0 4.9 3.0 3.8 4.7 5.9 5.9 6.2 6.6 6.9 7.3 7.3 6.8 6.8 6.9 6.3 6.3 6.0 5.9 5.9 4.9 4.6 4.3 4.3 5.4 5.5 5.9 6.7 6.0 6.3 6.5 6.5 6.2 6.0 5.5 4.8
3.9 4.9 5.4 5.7 6.2 6.4 6.3 6.1 6.0 5.8 6.4 6.3 6.2 6.4 6.4 6.0 6.1 5.5 5.7 5.9 6.5 7.2 6.6 6.0 5.9 5.7 6.1 6.1 6.3 6.4 6.7 6.9 6.4 6.2 5.7 5.4 5.1 5.1
5.0 5.9 6.5 6.2 6.3 6.5 6.6 6.6 6.2 5.1 5.6 5.3 5.3 5.4 5.7 5.4 5.3 4.5 4.5 5.0 5.9 6.2 6.4 6.3 5.7 5.7 5.7 6.3 7.0 7.5 6.7 6.7 6.3 6.1 6.0 6.2 6.4 5.8
5.6 6.0 6.6 6.5 6.1 6.0 5.9 6.0 6.5 5.7 5.8 4.9 5.3 5.8 5.7 5.3 5.0 4.7 4.5 4.3 4.4 4.2 4.4 4.4 5.0 5.2 6.7 7.6 6.9 nan 6.8 6.1 6.0 6.0 6.0 6.5 6.6 6.6
5.6 6.0 6.6 6.4 6.1 6.2 6.0 5.9 5.8 5.7 5.9 5.8 5.9 6.0 6.0 6.1 5.6 5.8 5.2 5.8 5.0 4.1 4.0 3.7 3.8 4.5 6.4 6.9 5.8 5.6 nan 5.3 5.5 6.1 6.8 6.6 5.8 nan
6.1 6.6 6.9 6.9 6.7 6.4 6.8 6.8 6.9 6.7 6.4 6.5 6.2 6.2 6.0 6.0 5.8 5.9 6.4 4.9 4.2 4.8 5.3 4.9 4.0 3.1 4.0 3.8 4.8 4.6 4.1 nan 5.7 5.9 6.1 6.1 6.3 6.6
7.5 7.4 7.2 7.3 7.4 7.4 6.9 6.7 6.8 6.6 6.8 6.5 6.6 6.2 5.9 6.1 6.8 6.7 6.3 6.2 6.2 5.8 5.7 4.8 4.0 4.0 4.0 4.7 5.1 4.5 4.5 3.8 nan nan nan nan 7.2 7.8
7.3 7.3 7.3 7.3 7.0 6.8 6.7 7.2 7.1 6.8 7.1 7.0 6.9 6.8 5.8 7.4 6.4 6.3 6.3 6.2 6.2 6.1 5.9 6.0 5.1 4.6 4.5 4.7 4.9 4.9 5.6 4.9 4.5 4.6 4.3 nan nan nan